This is the latest recevied weather packets stored in our database for station/object YU7OR-2. If no packets are shown the sender has not sent any weather packets the latest 10 day(s).
| Time | Temp. | Humidity | Pressure | Rain* | Wind** | Luminosity | Snow |
|---|---|---|---|---|---|---|---|
| 1778009989 | 20° C | 49% | 1009.7 hPa | 0 mm | - | - | - |
| 1778009719 | 20° C | 48% | 1009.7 hPa | 0 mm | - | - | - |
| 1778009444 | 20° C | 48% | 1009.5 hPa | 0 mm | - | - | - |
| 1778009149 | 19.44° C | 47% | 1009.5 hPa | 0 mm | - | - | - |
| 1778008899 | 19.44° C | 47% | 1009.3 hPa | 0 mm | - | - | - |
| 1778008604 | 19.44° C | 47% | 1009.3 hPa | 0 mm | - | - | - |
| 1778008309 | 19.44° C | 47% | 1009.3 hPa | 0 mm | - | - | - |
| 1778008044 | 19.44° C | 47% | 1009.3 hPa | 0 mm | - | - | - |
| 1778007744 | 19.44° C | 46% | 1009.1 hPa | 0 mm | - | - | - |
| 1778007444 | 19.44° C | 47% | 1008.9 hPa | 0 mm | - | - | - |
| 1778007174 | 20° C | 47% | 1008.8 hPa | 0 mm | - | - | - |
| 1778006889 | 20° C | 47% | 1008.7 hPa | 0 mm | - | - | - |
| 1778006624 | 20° C | 46% | 1008.7 hPa | 0 mm | - | - | - |
| 1778006384 | 20.56° C | 46% | 1008.7 hPa | 0 mm | - | - | - |
| 1778006109 | 20.56° C | 45% | 1008.5 hPa | 0 mm | - | - | - |
| 1778005849 | 21.67° C | 46% | 1008.6 hPa | 0 mm | - | - | - |
| 1778005594 | 21.67° C | 46% | 1008.6 hPa | 0 mm | - | - | - |
| 1778005329 | 21.67° C | 46% | 1008.6 hPa | 0 mm | - | - | - |
| 1778005029 | 21.67° C | 46% | 1008.7 hPa | 0 mm | - | - | - |
| 1778004739 | 22.78° C | 45% | 1008.5 hPa | 0 mm | - | - | - |
| 1778004489 | 22.78° C | 45% | 1008.5 hPa | 0 mm | - | - | - |
| 1778004234 | 22.78° C | 45% | 1008.5 hPa | 0 mm | - | - | - |
| 1778003959 | 23.33° C | 44% | 1008.5 hPa | 0 mm | - | - | - |
| 1778003664 | 23.89° C | 45% | 1008.5 hPa | 0 mm | - | - | - |
| 1778003409 | 23.89° C | 44% | 1008.5 hPa | 0 mm | - | - | - |
* Rain latest hour (hover to see other rain measurements)
** Current wind speed in m/s (hover to see current wind gust speed)